Tracking 25648 objects as of 17-May-2022
HD Live streaming from Space Station
objects crossing your sky now

COSMOS 2251 DEB

Track COSMOS 2251 DEB now!
10-day predictions


NORAD ID: 47118
Int'l Code: 1993-036BYJ
Perigee: 541.6 km
Apogee: 601.3 km
Inclination: 74.0 °
Period: 95.9 minutes
Semi major axis: 6942 km
RCS: Unknown
Launch date: June 16, 1993
Source: Commonwealth of Independent States (former USSR) (CIS)
Launch site: PLESETSK MISSILE AND SPACE COMPLEX (PKMTR)

Note: This is SATELLITE DEBRIS
aabbcc
Your satellite tracking list
Your tracking list is empty




NASA's NSSDC Master Catalog

Two Line Element Set (TLE):
1 47118U 93036BYL 22135.85656199  .00041752  00000-0  32052-2 0  9997
2 47118  74.0406 342.3172 0042982 352.4739   7.5797 15.00829453412115
Source of the keplerian elements: AFSPC